星链-5864 (STARLINK-5864 )

导读 | 星芒AI

STARLINK-5864 是 SpaceX Starlink 卫星互联网项目中的一颗低轨卫星,属于第二代 Starlink 卫星(Gen2)。它于2023年发射,运行在约550公里高的近地轨道,旨在为全球用户提供高速、低延迟的互联网服务。该卫星采用先进通信技术,支持更广覆盖和更高带宽,是SpaceX构建全球宽带网络的重要组成部分。

基本信息
目录编号:
55940
目录名称:
STARLINK-5864
国际标识:
2023-037AC
轨道中心:
EARTH
卫星名称:
星链-5864
卫星全名:
星链-5864 (STARLINK-5864 )
卫星状态:
在轨 (已飞行963 天)
发射日期:
2023-03-17 UTC
国别 :
美国 (US)
星等 :
--
轨道信息
数据来源 国际轨道数据 AOE轨道数据
星历时间 2025-11-03T20:51:00+0800
18小时前
查看轨道信息
2025-11-03T15:00:00+0800
1天前
查看轨道信息
半长轴 6950.168km 6950.165km
偏心率 0.0002496 0.0003218
轨道倾角 70.000° 69.998°
近地点辐角 265.053° 266.954°
升交点赤经 242.528° 243.141°
平近点角 95.034° 218.721°
近地点 570.298km 569.793km
远地点 573.768km 574.267km
周期 96.106分钟 96.106分钟
每日圈数 14.983382 14.983393
详细信息
固有亮度:
5
最大亮度:
2.5
卫星平台:
Starlink v1.5
覆盖范围:
全球
运营商:
太空探索技术公司
运营商所在国:
美国
制造商(研发单位):
太空探索技术公司
制造商所在国:
美国
使用方式:
暂无
卫星简介
星链(Starlink)计划是由太空探索技术公司(SpaceX)提出的一个巨型低轨卫星互联网星座项目,计划在2019年至2024年间在太空搭建由约1.2万颗卫星组成的“星链”网络,其中1584颗将部署在地球上空550千米处的近地轨道,并从2020年开始工作。该卫星仍在工作。
2D轨道图
3D轨道图
轨道高度分析图
轨道倾角分析图
轨道综合分析图
查看轨道综合分析图